{"data":{"norad_id":68840,"intl_designator":"2026-094B","name":"STARLINK-37452","alt_names":[],"object_type":"PAYLOAD","status":"ACTIVE","operator":null,"country":"US","launch_date":"2026-04-26","launch_site_code":"AFWTR","launch_vehicle":null,"mission":null,"orbit_class":"UNKNOWN","rcs_meters":null,"size_class":null,"mass_kg":null,"dimensions":null,"purposes":["comms"],"wikipedia_slug":null,"has_3d_model":false,"image_url":null,"decayed_at":null,"tle_current":{"epoch":"2026-09-19T23:28:33.127680Z","epoch_age_seconds":60555,"freshness":"FRESH","line1":"1 68840U 26094B   26262.97816120  .00011555  00000+0  35961-3 0  9992","line2":"2 68840  97.2838 276.0483 0001714  94.0075 266.1364 15.33452352 22570","mean_motion":15.33452352,"eccentricity":0.0001714,"inclination_deg":97.2838,"raan_deg":276.0483,"arg_perigee_deg":94.0075,"mean_anomaly_deg":266.1364,"bstar":0.00035961,"rev_number":2257,"period_min":93.905754431945,"perigee_km":464.34829715345,"apogee_km":466.69430321875,"semimajor_km":6843.6583001861,"source":"CELESTRAK","updated_at":"2026-09-20T09:00:44.013520Z"}}}